Time,TemperatureF,DewpointF,PressureIn,WindDirection,WindDirectionDegrees,WindSpeedMPH,WindSpeedGustMPH,Humidity,HourlyPrecipIn,Conditions,Clouds,dailyrainin,SoftwareType,DateUTC
2013-03-09 00:01:00,45.9,35.6,29.98,ENE,68,2.0,-999.0,67,0.00,,,0.00,Wunderground v.1.15,2013-03-09 08:01:00,
2013-03-09 00:06:00,45.9,35.6,29.98,ENE,68,2.0,-999.0,67,0.00,,,0.00,Wunderground v.1.15,2013-03-09 08:06:00,
2013-03-09 00:11:00,45.9,35.6,29.98,ENE,68,2.0,-999.0,67,0.00,,,0.00,Wunderground v.1.15,2013-03-09 08:11:00,
2013-03-09 00:16:00,45.9,35.6,29.98,ENE,68,2.0,-999.0,67,0.00,,,0.00,Wunderground v.1.15,2013-03-09 08:16:00,
2013-03-09 00:21:00,45.9,35.6,29.98,ENE,68,2.0,-999.0,67,0.00,,,0.00,Wunderground v.1.15,2013-03-09 08:21:00,
2013-03-09 00:26:00,45.9,35.6,29.98,ENE,68,2.0,-999.0,67,0.00,,,0.00,Wunderground v.1.15,2013-03-09 08:26:00,
2013-03-09 00:31:00,45.9,35.6,29.98,ENE,68,2.0,-999.0,67,0.00,,,0.00,Wunderground v.1.15,2013-03-09 08:31:00,
2013-03-09 00:36:00,45.9,35.6,29.98,ENE,68,2.0,-999.0,67,0.00,,,0.00,Wunderground v.1.15,2013-03-09 08:36:00,
2013-03-09 00:41:00,45.9,35.6,29.98,ENE,68,2.0,-999.0,67,0.00,,,0.00,Wunderground v.1.15,2013-03-09 08:41:00,
2013-03-09 00:46:00,44.2,37.1,30.01,WSW,248,1.0,-999.0,76,0.00,,,0.00,Wunderground v.1.15,2013-03-09 08:46:00,
2013-03-09 00:51:00,44.2,37.1,30.01,WSW,248,1.0,-999.0,76,0.00,,,0.00,Wunderground v.1.15,2013-03-09 08:51:00,
2013-03-09 00:56:00,44.2,37.1,30.01,WSW,248,1.0,-999.0,76,0.00,,,0.00,Wunderground v.1.15,2013-03-09 08:56:00,
2013-03-09 01:01:00,44.2,37.1,30.01,WSW,248,1.0,-999.0,76,0.00,,,0.00,Wunderground v.1.15,2013-03-09 09:01:00,
2013-03-09 01:06:00,44.2,37.1,30.01,WSW,248,1.0,-999.0,76,0.00,,,0.00,Wunderground v.1.15,2013-03-09 09:06:00,
2013-03-09 01:11:00,44.2,37.1,30.01,WSW,248,1.0,-999.0,76,0.00,,,0.00,Wunderground v.1.15,2013-03-09 09:11:00,
2013-03-09 01:16:00,42.8,38.0,30.02,WSW,248,1.0,-999.0,83,0.00,,,0.00,Wunderground v.1.15,2013-03-09 09:16:00,
2013-03-09 01:21:00,42.8,38.0,30.02,WSW,248,1.0,-999.0,83,0.00,,,0.00,Wunderground v.1.15,2013-03-09 09:21:00,
2013-03-09 01:26:00,42.8,38.0,30.02,WSW,248,1.0,-999.0,83,0.00,,,0.00,Wunderground v.1.15,2013-03-09 09:26:00,
2013-03-09 01:31:00,42.8,38.0,30.02,WSW,248,1.0,-999.0,83,0.00,,,0.00,Wunderground v.1.15,2013-03-09 09:31:00,
2013-03-09 01:36:00,42.8,38.0,30.02,WSW,248,1.0,-999.0,83,0.00,,,0.00,Wunderground v.1.15,2013-03-09 09:36:00,
2013-03-09 01:41:00,42.8,38.0,30.02,WSW,248,1.0,-999.0,83,0.00,,,0.00,Wunderground v.1.15,2013-03-09 09:41:00,
2013-03-09 01:46:00,42.1,37.6,30.03,NNE,23,0.0,-999.0,84,0.00,,,0.00,Wunderground v.1.15,2013-03-09 09:46:00,
2013-03-09 01:51:00,42.1,37.6,30.03,NNE,23,0.0,-999.0,84,0.00,,,0.00,Wunderground v.1.15,2013-03-09 09:51:00,
2013-03-09 01:56:00,42.1,37.6,30.03,NNE,23,0.0,-999.0,84,0.00,,,0.00,Wunderground v.1.15,2013-03-09 09:56:00,
2013-03-09 02:01:00,42.1,37.6,30.03,NNE,23,0.0,-999.0,84,0.00,,,0.00,Wunderground v.1.15,2013-03-09 10:01:00,
2013-03-09 02:06:00,42.1,37.6,30.03,NNE,23,0.0,-999.0,84,0.00,,,0.00,Wunderground v.1.15,2013-03-09 10:06:00,
2013-03-09 02:11:00,42.1,37.6,30.03,NNE,23,0.0,-999.0,84,0.00,,,0.00,Wunderground v.1.15,2013-03-09 10:11:00,
2013-03-09 02:16:00,40.9,37.3,30.04,West,270,0.0,-999.0,87,0.00,,,0.00,Wunderground v.1.15,2013-03-09 10:16:00,
2013-03-09 02:21:00,40.9,37.3,30.04,West,270,0.0,-999.0,87,0.00,,,0.00,Wunderground v.1.15,2013-03-09 10:21:00,
2013-03-09 02:26:00,40.9,37.3,30.04,West,270,0.0,-999.0,87,0.00,,,0.00,Wunderground v.1.15,2013-03-09 10:26:00,
2013-03-09 02:31:00,40.9,37.3,30.04,West,270,0.0,-999.0,87,0.00,,,0.00,Wunderground v.1.15,2013-03-09 10:31:00,
2013-03-09 02:36:00,40.9,37.3,30.04,West,270,0.0,-999.0,87,0.00,,,0.00,Wunderground v.1.15,2013-03-09 10:36:00,
2013-03-09 02:41:00,40.9,37.3,30.04,West,270,0.0,-999.0,87,0.00,,,0.00,Wunderground v.1.15,2013-03-09 10:41:00,
2013-03-09 02:46:00,39.9,36.9,30.05,N/A,-737280,0.0,-999.0,89,0.00,,,0.00,Wunderground v.1.15,2013-03-09 10:46:00,
2013-03-09 02:51:00,39.9,36.9,30.05,N/A,-737280,0.0,-999.0,89,0.00,,,0.00,Wunderground v.1.15,2013-03-09 10:51:00,
2013-03-09 02:56:00,39.9,36.9,30.05,N/A,-737280,0.0,-999.0,89,0.00,,,0.00,Wunderground v.1.15,2013-03-09 10:56:00,
2013-03-09 03:01:00,39.9,36.9,30.05,N/A,-737280,0.0,-999.0,89,0.00,,,0.00,Wunderground v.1.15,2013-03-09 11:01:00,
2013-03-09 03:06:00,39.9,36.9,30.05,N/A,-737280,0.0,-999.0,89,0.00,,,0.00,Wunderground v.1.15,2013-03-09 11:06:00,
2013-03-09 03:11:00,39.9,36.9,30.05,N/A,-737280,0.0,-999.0,89,0.00,,,0.00,Wunderground v.1.15,2013-03-09 11:11:00,
2013-03-09 03:16:00,39.3,36.9,30.05,West,270,0.0,-999.0,91,0.00,,,0.00,Wunderground v.1.15,2013-03-09 11:16:00,
2013-03-09 03:21:00,39.3,36.9,30.05,West,270,0.0,-999.0,91,0.00,,,0.00,Wunderground v.1.15,2013-03-09 11:21:00,
2013-03-09 03:26:00,39.3,36.9,30.05,West,270,0.0,-999.0,91,0.00,,,0.00,Wunderground v.1.15,2013-03-09 11:26:00,
2013-03-09 03:31:00,39.3,36.9,30.05,West,270,0.0,-999.0,91,0.00,,,0.00,Wunderground v.1.15,2013-03-09 11:31:00,
2013-03-09 03:36:00,39.3,36.9,30.05,West,270,0.0,-999.0,91,0.00,,,0.00,Wunderground v.1.15,2013-03-09 11:36:00,
2013-03-09 03:41:00,39.3,36.9,30.05,West,270,0.0,-999.0,91,0.00,,,0.00,Wunderground v.1.15,2013-03-09 11:41:00,
2013-03-09 03:46:00,39.2,36.8,30.06,N/A,-737280,0.0,-999.0,91,0.00,,,0.00,Wunderground v.1.15,2013-03-09 11:46:00,
2013-03-09 03:51:00,39.2,36.8,30.06,N/A,-737280,0.0,-999.0,91,0.00,,,0.00,Wunderground v.1.15,2013-03-09 11:51:00,
2013-03-09 03:56:00,39.2,36.8,30.06,N/A,-737280,0.0,-999.0,91,0.00,,,0.00,Wunderground v.1.15,2013-03-09 11:56:00,
2013-03-09 04:01:00,39.2,36.8,30.06,N/A,-737280,0.0,-999.0,91,0.00,,,0.00,Wunderground v.1.15,2013-03-09 12:01:00,
2013-03-09 04:06:00,39.2,36.8,30.06,N/A,-737280,0.0,-999.0,91,0.00,,,0.00,Wunderground v.1.15,2013-03-09 12:06:00,
2013-03-09 04:11:00,39.2,36.8,30.06,N/A,-737280,0.0,-999.0,91,0.00,,,0.00,Wunderground v.1.15,2013-03-09 12:11:00,
2013-03-09 04:16:00,38.9,36.8,30.07,WNW,293,0.0,-999.0,92,0.00,,,0.00,Wunderground v.1.15,2013-03-09 12:16:00,
2013-03-09 04:21:00,38.9,36.8,30.07,WNW,293,0.0,-999.0,92,0.00,,,0.00,Wunderground v.1.15,2013-03-09 12:21:00,
2013-03-09 04:26:00,38.9,36.8,30.07,WNW,293,0.0,-999.0,92,0.00,,,0.00,Wunderground v.1.15,2013-03-09 12:26:00,
2013-03-09 04:31:00,38.9,36.8,30.07,WNW,293,0.0,-999.0,92,0.00,,,0.00,Wunderground v.1.15,2013-03-09 12:31:00,
2013-03-09 04:36:00,38.9,36.8,30.07,WNW,293,0.0,-999.0,92,0.00,,,0.00,Wunderground v.1.15,2013-03-09 12:36:00,
2013-03-09 04:41:00,38.9,36.8,30.07,WNW,293,0.0,-999.0,92,0.00,,,0.00,Wunderground v.1.15,2013-03-09 12:41:00,
2013-03-09 04:46:00,37.9,36.1,30.08,East,90,0.0,-999.0,93,0.00,,,0.00,Wunderground v.1.15,2013-03-09 12:46:00,
2013-03-09 04:51:00,37.9,36.1,30.08,East,90,0.0,-999.0,93,0.00,,,0.00,Wunderground v.1.15,2013-03-09 12:51:00,
2013-03-09 04:56:00,37.9,36.1,30.08,East,90,0.0,-999.0,93,0.00,,,0.00,Wunderground v.1.15,2013-03-09 12:56:00,
2013-03-09 05:01:00,37.9,36.1,30.08,East,90,0.0,-999.0,93,0.00,,,0.00,Wunderground v.1.15,2013-03-09 13:01:00,
2013-03-09 05:06:00,37.9,36.1,30.08,East,90,0.0,-999.0,93,0.00,,,0.00,Wunderground v.1.15,2013-03-09 13:06:00,
2013-03-09 05:11:00,37.9,36.1,30.08,East,90,0.0,-999.0,93,0.00,,,0.00,Wunderground v.1.15,2013-03-09 13:11:00,
2013-03-09 05:16:00,37.2,35.6,30.09,ENE,68,1.0,-999.0,94,0.00,,,0.00,Wunderground v.1.15,2013-03-09 13:16:00,
2013-03-09 05:21:00,37.2,35.6,30.09,ENE,68,1.0,-999.0,94,0.00,,,0.00,Wunderground v.1.15,2013-03-09 13:21:00,
2013-03-09 05:26:00,37.2,35.6,30.09,ENE,68,1.0,-999.0,94,0.00,,,0.00,Wunderground v.1.15,2013-03-09 13:26:00,
2013-03-09 05:31:00,37.2,35.6,30.09,ENE,68,1.0,-999.0,94,0.00,,,0.00,Wunderground v.1.15,2013-03-09 13:31:00,
2013-03-09 05:36:00,37.2,35.6,30.09,ENE,68,1.0,-999.0,94,0.00,,,0.00,Wunderground v.1.15,2013-03-09 13:36:00,
2013-03-09 05:41:00,37.2,35.6,30.09,ENE,68,1.0,-999.0,94,0.00,,,0.00,Wunderground v.1.15,2013-03-09 13:41:00,
2013-03-09 05:46:00,37.4,35.0,30.10,ENE,68,1.0,-999.0,91,0.00,,,0.00,Wunderground v.1.15,2013-03-09 13:46:00,
2013-03-09 05:51:00,37.4,35.0,30.10,ENE,68,1.0,-999.0,91,0.00,,,0.00,Wunderground v.1.15,2013-03-09 13:51:00,
2013-03-09 05:56:00,37.4,35.0,30.10,ENE,68,1.0,-999.0,91,0.00,,,0.00,Wunderground v.1.15,2013-03-09 13:56:00,
2013-03-09 06:01:00,37.4,35.0,30.10,ENE,68,1.0,-999.0,91,0.00,,,0.00,Wunderground v.1.15,2013-03-09 14:01:00,
2013-03-09 06:06:00,37.4,35.0,30.10,ENE,68,1.0,-999.0,91,0.00,,,0.00,Wunderground v.1.15,2013-03-09 14:06:00,
2013-03-09 06:11:00,37.4,35.0,30.10,ENE,68,1.0,-999.0,91,0.00,,,0.00,Wunderground v.1.15,2013-03-09 14:11:00,
2013-03-09 06:16:00,38.4,34.0,30.11,ENE,68,0.0,-999.0,84,0.00,,,0.00,Wunderground v.1.15,2013-03-09 14:16:00,
2013-03-09 06:21:00,38.4,34.0,30.11,ENE,68,0.0,-999.0,84,0.00,,,0.00,Wunderground v.1.15,2013-03-09 14:21:00,
2013-03-09 06:26:00,38.4,34.0,30.11,ENE,68,0.0,-999.0,84,0.00,,,0.00,Wunderground v.1.15,2013-03-09 14:26:00,
2013-03-09 06:31:00,38.4,34.0,30.11,ENE,68,0.0,-999.0,84,0.00,,,0.00,Wunderground v.1.15,2013-03-09 14:31:00,
2013-03-09 06:36:00,38.4,34.0,30.11,ENE,68,0.0,-999.0,84,0.00,,,0.00,Wunderground v.1.15,2013-03-09 14:36:00,
2013-03-09 06:41:00,38.4,34.0,30.11,ENE,68,0.0,-999.0,84,0.00,,,0.00,Wunderground v.1.15,2013-03-09 14:41:00,
2013-03-09 06:46:00,43.2,33.0,30.13,NE,45,2.0,-999.0,67,0.00,,,0.00,Wunderground v.1.15,2013-03-09 14:46:00,
2013-03-09 06:51:00,43.2,33.0,30.13,NE,45,2.0,-999.0,67,0.00,,,0.00,Wunderground v.1.15,2013-03-09 14:51:00,
2013-03-09 06:56:00,43.2,33.0,30.13,NE,45,2.0,-999.0,67,0.00,,,0.00,Wunderground v.1.15,2013-03-09 14:56:00,
2013-03-09 07:01:00,43.2,33.0,30.13,NE,45,2.0,-999.0,67,0.00,,,0.00,Wunderground v.1.15,2013-03-09 15:01:00,
2013-03-09 07:06:00,43.2,33.0,30.13,NE,45,2.0,-999.0,67,0.00,,,0.00,Wunderground v.1.15,2013-03-09 15:06:00,
2013-03-09 07:11:00,43.2,33.0,30.13,NE,45,2.0,-999.0,67,0.00,,,0.00,Wunderground v.1.15,2013-03-09 15:11:00,
2013-03-09 07:16:00,45.0,30.7,30.15,NE,45,2.0,-999.0,57,0.00,,,0.00,Wunderground v.1.15,2013-03-09 15:16:00,
2013-03-09 07:21:00,45.0,30.7,30.15,NE,45,2.0,-999.0,57,0.00,,,0.00,Wunderground v.1.15,2013-03-09 15:21:00,
2013-03-09 07:26:00,45.0,30.7,30.15,NE,45,2.0,-999.0,57,0.00,,,0.00,Wunderground v.1.15,2013-03-09 15:26:00,
2013-03-09 07:31:00,45.0,30.7,30.15,NE,45,2.0,-999.0,57,0.00,,,0.00,Wunderground v.1.15,2013-03-09 15:31:00,
2013-03-09 07:36:00,45.0,30.7,30.15,NE,45,2.0,-999.0,57,0.00,,,0.00,Wunderground v.1.15,2013-03-09 15:36:00,
2013-03-09 07:41:00,45.0,30.7,30.15,NE,45,2.0,-999.0,57,0.00,,,0.00,Wunderground v.1.15,2013-03-09 15:41:00,
2013-03-09 07:46:00,48.8,31.9,30.16,NNE,23,1.0,-999.0,52,0.00,,,0.00,Wunderground v.1.15,2013-03-09 15:46:00,
2013-03-09 07:51:00,48.8,31.9,30.16,NNE,23,1.0,-999.0,52,0.00,,,0.00,Wunderground v.1.15,2013-03-09 15:51:00,
2013-03-09 07:56:00,48.8,31.9,30.16,NNE,23,1.0,-999.0,52,0.00,,,0.00,Wunderground v.1.15,2013-03-09 15:56:00,
2013-03-09 08:01:00,48.8,31.9,30.16,NNE,23,1.0,-999.0,52,0.00,,,0.00,Wunderground v.1.15,2013-03-09 16:01:00,
2013-03-09 08:06:00,48.8,31.9,30.16,NNE,23,1.0,-999.0,52,0.00,,,0.00,Wunderground v.1.15,2013-03-09 16:06:00,
2013-03-09 08:11:00,48.8,31.9,30.16,NNE,23,1.0,-999.0,52,0.00,,,0.00,Wunderground v.1.15,2013-03-09 16:11:00,
2013-03-09 08:16:00,49.7,32.3,30.18,NW,315,1.0,-999.0,51,0.00,,,0.00,Wunderground v.1.15,2013-03-09 16:16:00,
2013-03-09 08:21:00,49.7,32.3,30.18,NW,315,1.0,-999.0,51,0.00,,,0.00,Wunderground v.1.15,2013-03-09 16:21:00,
2013-03-09 08:26:00,49.7,32.3,30.18,NW,315,1.0,-999.0,51,0.00,,,0.00,Wunderground v.1.15,2013-03-09 16:26:00,
2013-03-09 08:31:00,49.7,32.3,30.18,NW,315,1.0,-999.0,51,0.00,,,0.00,Wunderground v.1.15,2013-03-09 16:31:00,
2013-03-09 08:36:00,49.7,32.3,30.18,NW,315,1.0,-999.0,51,0.00,,,0.00,Wunderground v.1.15,2013-03-09 16:36:00,
2013-03-09 09:40:00,55.3,26.7,30.19,North,351,1.0,1.0,33,0.00,,,0.00,Wunderground v.1.15,2013-03-09 17:40:00,
2013-03-09 09:50:00,55.6,26.2,30.19,North,355,1.0,1.0,32,0.00,,,0.00,Wunderground v.1.15,2013-03-09 17:50:00,
2013-03-09 20:15:00,52.0,30.7,30.26,NE,45,1.0,-999.0,44,0.00,,,0.00,Wunderground v.1.15,2013-03-10 04:15:00,
2013-03-09 20:20:00,52.0,30.7,30.26,NE,45,1.0,-999.0,44,0.00,,,0.00,Wunderground v.1.15,2013-03-10 04:20:00,
2013-03-09 20:25:00,52.0,30.7,30.26,NE,45,1.0,-999.0,44,0.00,,,0.00,Wunderground v.1.15,2013-03-10 04:25:00,
2013-03-09 20:30:00,52.0,30.7,30.26,NE,45,1.0,-999.0,44,0.00,,,0.00,Wunderground v.1.15,2013-03-10 04:30:00,
2013-03-09 20:35:00,52.0,30.7,30.26,NE,45,1.0,-999.0,44,0.00,,,0.00,Wunderground v.1.15,2013-03-10 04:35:00,
2013-03-09 20:40:00,52.0,30.7,30.26,NE,45,1.0,-999.0,44,0.00,,,0.00,Wunderground v.1.15,2013-03-10 04:40:00,
2013-03-09 20:45:00,49.0,30.7,30.26,East,90,1.0,-999.0,49,0.00,,,0.00,Wunderground v.1.15,2013-03-10 04:45:00,
2013-03-09 20:50:00,49.0,30.7,30.26,East,90,1.0,-999.0,49,0.00,,,0.00,Wunderground v.1.15,2013-03-10 04:50:00,
2013-03-09 20:55:00,49.0,30.7,30.26,East,90,1.0,-999.0,49,0.00,,,0.00,Wunderground v.1.15,2013-03-10 04:55:00,
2013-03-09 21:00:00,49.0,30.7,30.26,East,90,1.0,-999.0,49,0.00,,,0.00,Wunderground v.1.15,2013-03-10 05:00:00,
2013-03-09 21:05:00,49.0,30.7,30.26,East,90,1.0,-999.0,49,0.00,,,0.00,Wunderground v.1.15,2013-03-10 05:05:00,
2013-03-09 21:10:00,49.0,30.7,30.26,East,90,1.0,-999.0,49,0.00,,,0.00,Wunderground v.1.15,2013-03-10 05:10:00,
2013-03-09 21:15:00,48.0,25.4,30.27,East,90,1.0,-999.0,41,0.00,,,0.00,Wunderground v.1.15,2013-03-10 05:15:00,
2013-03-09 21:20:00,48.0,25.4,30.27,East,90,1.0,-999.0,41,0.00,,,0.00,Wunderground v.1.15,2013-03-10 05:20:00,
2013-03-09 21:25:00,48.0,25.4,30.27,East,90,1.0,-999.0,41,0.00,,,0.00,Wunderground v.1.15,2013-03-10 05:25:00,
2013-03-09 21:30:00,48.0,25.4,30.27,East,90,1.0,-999.0,41,0.00,,,0.00,Wunderground v.1.15,2013-03-10 05:30:00,
2013-03-09 21:35:00,48.0,25.4,30.27,East,90,1.0,-999.0,41,0.00,,,0.00,Wunderground v.1.15,2013-03-10 05:35:00,
2013-03-09 21:40:00,48.0,25.4,30.27,East,90,1.0,-999.0,41,0.00,,,0.00,Wunderground v.1.15,2013-03-10 05:40:00,
2013-03-09 21:45:00,47.4,23.0,30.27,East,90,1.0,-999.0,38,0.00,,,0.00,Wunderground v.1.15,2013-03-10 05:45:00,
2013-03-09 21:50:00,47.4,23.0,30.27,East,90,1.0,-999.0,38,0.00,,,0.00,Wunderground v.1.15,2013-03-10 05:50:00,
2013-03-09 21:55:00,47.4,23.0,30.27,East,90,1.0,-999.0,38,0.00,,,0.00,Wunderground v.1.15,2013-03-10 05:55:00,
2013-03-09 22:00:00,47.4,23.0,30.27,East,90,1.0,-999.0,38,0.00,,,0.00,Wunderground v.1.15,2013-03-10 06:00:00,
2013-03-09 22:05:00,47.4,23.0,30.27,East,90,1.0,-999.0,38,0.00,,,0.00,Wunderground v.1.15,2013-03-10 06:05:00,
2013-03-09 22:10:00,47.4,23.0,30.27,East,90,1.0,-999.0,38,0.00,,,0.00,Wunderground v.1.15,2013-03-10 06:10:00,
2013-03-09 22:15:00,45.3,24.6,30.27,NE,45,1.0,-999.0,44,0.00,,,0.00,Wunderground v.1.15,2013-03-10 06:15:00,
2013-03-09 22:20:00,45.3,24.6,30.27,NE,45,1.0,-999.0,44,0.00,,,0.00,Wunderground v.1.15,2013-03-10 06:20:00,
2013-03-09 22:25:00,45.3,24.6,30.27,NE,45,1.0,-999.0,44,0.00,,,0.00,Wunderground v.1.15,2013-03-10 06:25:00,
2013-03-09 22:30:00,45.3,24.6,30.27,NE,45,1.0,-999.0,44,0.00,,,0.00,Wunderground v.1.15,2013-03-10 06:30:00,
2013-03-09 22:35:00,45.3,24.6,30.27,NE,45,1.0,-999.0,44,0.00,,,0.00,Wunderground v.1.15,2013-03-10 06:35:00,
2013-03-09 22:40:00,45.3,24.6,30.27,NE,45,1.0,-999.0,44,0.00,,,0.00,Wunderground v.1.15,2013-03-10 06:40:00,
2013-03-09 22:45:00,48.2,20.4,30.27,East,90,0.0,-999.0,33,0.00,,,0.00,Wunderground v.1.15,2013-03-10 06:45:00,
2013-03-09 22:50:00,48.2,20.4,30.27,East,90,0.0,-999.0,33,0.00,,,0.00,Wunderground v.1.15,2013-03-10 06:50:00,
2013-03-09 22:55:00,48.2,20.4,30.27,East,90,0.0,-999.0,33,0.00,,,0.00,Wunderground v.1.15,2013-03-10 06:55:00,
2013-03-09 23:00:00,48.2,20.4,30.27,East,90,0.0,-999.0,33,0.00,,,0.00,Wunderground v.1.15,2013-03-10 07:00:00,
2013-03-09 23:05:00,48.2,20.4,30.27,East,90,0.0,-999.0,33,0.00,,,0.00,Wunderground v.1.15,2013-03-10 07:05:00,
2013-03-09 23:10:00,48.2,20.4,30.27,East,90,0.0,-999.0,33,0.00,,,0.00,Wunderground v.1.15,2013-03-10 07:10:00,
2013-03-09 23:15:00,51.2,17.4,30.28,NE,45,1.0,-999.0,26,0.00,,,0.00,Wunderground v.1.15,2013-03-10 07:15:00,
2013-03-09 23:20:00,51.2,17.4,30.28,NE,45,1.0,-999.0,26,0.00,,,0.00,Wunderground v.1.15,2013-03-10 07:20:00,
2013-03-09 23:25:00,51.2,17.4,30.28,NE,45,1.0,-999.0,26,0.00,,,0.00,Wunderground v.1.15,2013-03-10 07:25:00,
2013-03-09 23:30:00,51.2,17.4,30.28,NE,45,1.0,-999.0,26,0.00,,,0.00,Wunderground v.1.15,2013-03-10 07:30:00,
2013-03-09 23:35:00,51.2,17.4,30.28,NE,45,1.0,-999.0,26,0.00,,,0.00,Wunderground v.1.15,2013-03-10 07:35:00,
2013-03-09 23:40:00,51.2,17.4,30.28,NE,45,1.0,-999.0,26,0.00,,,0.00,Wunderground v.1.15,2013-03-10 07:40:00,
2013-03-09 23:45:00,52.5,16.7,30.27,NE,45,3.0,-999.0,24,0.00,,,0.00,Wunderground v.1.15,2013-03-10 07:45:00,
2013-03-09 23:50:00,52.5,16.7,30.27,NE,45,3.0,-999.0,24,0.00,,,0.00,Wunderground v.1.15,2013-03-10 07:50:00,
2013-03-09 23:55:00,52.5,16.7,30.27,NE,45,3.0,-999.0,24,0.00,,,0.00,Wunderground v.1.15,2013-03-10 07:55:00,